EW6942 Weather Reports


time (UTC)temp
C
wind
direction
speed
KPH
gust
KPH
rain 1hr
cm
rain 24hr
cm
rain mn
cm
humidity
%
barometer
mb
20260906113034 21 165 0.0 0.0 0.00 0.18 0.00 74 1010.4
20260906111538 20 167 0.0 0.0 0.00 0.18 0.00 73 1010.2
20260906110035 20 160 0.0 0.0 0.00 0.18 0.00 73 1010.0
20260906104538 20 148 0.0 4.8 0.00 0.18 0.00 73 1009.7
20260906103035 20 150 0.0 3.2 0.00 0.18 0.00 73 1009.7
20260906101533 20 161 0.0 3.2 0.00 0.18 0.00 73 1009.6
20260906100033 20 167 0.0 3.2 0.00 0.18 0.00 73 1009.7
20260906094529 20 142 0.0 0.0 0.00 0.18 0.00 73 1009.7
20260906093031 20 167 0.0 0.0 0.00 0.18 0.00 73 1009.5
20260906091534 20 167 0.0 1.6 0.00 0.18 0.00 73 1009.6
20260906090028 20 167 0.0 1.6 0.00 0.18 0.00 73 1009.5
20260906084527 21 167 0.0 3.2 0.00 0.18 0.00 73 1009.4
20260906083026 21 167 0.0 1.6 0.00 0.18 0.00 73 1009.3
20260906081525 21 142 0.0 3.2 0.00 0.18 0.00 73 1009.4
20260906080026 21 94 0.0 0.0 0.00 0.18 0.00 74 1009.4
20260906074527 21 144 0.0 3.2 0.00 0.18 0.00 73 1009.5
20260906073025 21 132 1.6 3.2 0.00 0.18 0.00 74 1009.7
20260906071522 21 122 0.0 3.2 0.00 0.18 0.00 74 1009.8
20260906070019 21 144 0.0 1.6 0.00 0.18 0.00 74 1009.8
20260906064518 21 127 0.0 0.0 0.00 0.18 0.00 74 1009.7
20260906063016 21 152 0.0 0.0 0.00 0.18 0.00 74 1009.9
20260906061517 21 152 0.0 0.0 0.00 0.18 0.00 74 1010.1
20260906060013 21 122 0.0 0.0 0.00 0.18 0.00 74 1010.1
20260906054512 21 137 0.0 1.6 0.00 0.18 0.00 74 1010.2
20260906053010 21 140 0.0 3.2 0.00 0.18 0.00 74 1010.3
20260906051508 22 150 0.0 3.2 0.00 0.18 0.00 74 1010.5
20260906050006 22 110 0.0 3.2 0.00 0.18 0.00 74 1010.6
20260906044506 22 91 0.0 3.2 0.00 0.18 0.00 74 1010.7
20260906043004 22 80 0.0 3.2 0.00 0.18 0.00 74 1010.9
20260906041506 22 103 0.0 4.8 0.00 0.18 0.00 74 1010.7
20260906040123 22 99 0.0 1.6 0.00 0.18 0.00 74 1010.5
20260906034559 22 23 0.0 1.6 0.00 0.18 0.18 74 1010.5
20260906033108 22 3 0.0 3.2 0.00 0.18 0.18 74 1010.7
20260906031600 22 103 0.0 1.6 0.00 0.18 0.18 74 1010.7
20260906030056 22 107 0.0 1.6 0.00 0.18 0.18 74 1010.5
20260906024607 23 113 0.0 1.6 0.00 0.18 0.18 74 1010.5
20260906023056 23 113 0.0 3.2 0.00 0.18 0.18 74 1010.5
20260906021554 23 64 1.6 3.2 0.00 0.18 0.18 74 1010.3
20260906020055 23 74 1.6 6.4 0.00 0.18 0.18 74 1010.1
20260906014557 23 136 1.6 4.8 0.00 0.18 0.18 74 1009.8
20260906013051 23 167 0.0 3.2 0.00 0.18 0.18 74 1009.6
20260906011549 23 155 0.0 3.2 0.00 0.18 0.18 74 1009.6
20260906010048 23 75 0.0 3.2 0.00 0.18 0.18 74 1009.6
20260906004547 23 101 0.0 6.4 0.00 0.18 0.18 74 1009.7
20260906003046 23 142 1.6 4.8 0.00 0.18 0.18 74 1009.7
20260906001545 23 153 0.0 3.2 0.00 0.18 0.18 74 1009.9
20260906000044 24 108 3.2 6.4 0.00 0.18 0.18 74 1010.0
20260905234547 24 120 1.6 4.8 0.00 0.18 0.18 74 1010.4
20260905233044 24 335 1.6 8.0 0.00 0.18 0.18 74 1010.8
20260905231547 24 348 0.0 4.8 0.00 0.18 0.18 74 1010.0
20260905230100 24 91 0.0 3.2 0.00 0.18 0.18 74 1010.3
20260905224542 24 167 0.0 1.6 0.00 0.18 0.18 74 1009.8
20260905223042 24 100 1.6 4.8 0.03 0.18 0.18 74 1008.8
20260905221539 24 121 0.0 11.3 0.10 0.18 0.18 74 1008.3
20260905220038 24 124 3.2 14.5 0.18 0.18 0.18 74 1008.6
20260905214538 24 123 6.4 22.5 0.18 0.18 0.18 74 1008.5
20260905213036 25 124 9.7 17.7 0.15 0.15 0.15 74 1008.7
20260905211538 28 145 8.0 17.7 0.08 0.08 0.08 75 1009.2
20260905210035 29 106 1.6 6.4 0.00 0.00 0.00 75 1008.6
20260905204535 29 96 3.2 12.9 0.00 0.00 0.00 75 1008.1
20260905203034 28 66 8.0 27.4 0.00 0.00 0.00 75 1008.2
20260905201534 30 117 4.8 16.1 0.00 0.00 0.00 76 1008.3
20260905200032 33 140 4.8 11.3 0.00 0.00 0.00 76 1008.1
20260905194531 34 105 4.8 11.3 0.00 0.00 0.00 77 1008.2
20260905193029 35 96 3.2 14.5 0.00 0.00 0.00 77 1008.3
20260905191527 35 121 11.3 19.3 0.00 0.00 0.00 77 1008.5
20260905190023 35 88 6.4 17.7 0.00 0.00 0.00 77 1008.6
20260905184522 35 123 9.7 14.5 0.00 0.00 0.00 77 1009.1
20260905183017 35 46 4.8 0.0 0.00 0.00 0.00 77 1009.4
20260905181514 35 53 9.7 24.1 0.00 0.00 0.00 77 1009.8
20260905180007 34 109 4.8 11.3 0.00 0.00 0.00 77 1010.0
20260905174505 34 167 8.0 14.5 0.00 0.00 0.00 77 1010.3
20260905173002 34 103 6.4 12.9 0.00 0.00 0.00 77 1010.7
20260905171605 34 149 3.2 11.3 0.00 0.00 0.00 77 1010.7
20260905170055 34 146 3.2 14.5 0.00 0.00 0.00 76 1011.0
20260905164551 33 167 6.4 11.3 0.00 0.00 0.00 76 1011.3
20260905163048 33 126 8.0 14.5 0.00 0.00 0.00 76 1011.5
20260905161543 32 125 4.8 16.1 0.00 0.00 0.00 76 1011.7
20260905160047 32 120 8.0 16.1 0.00 0.00 0.00 76 1011.8
20260905154600 31 127 8.0 16.1 0.00 0.00 0.00 76 1012.0
20260905153044 31 111 9.7 16.1 0.00 0.00 0.00 76 1012.1
20260905151542 31 111 9.7 17.7 0.00 0.00 0.00 76 1012.4
20260905150040 31 141 6.4 12.9 0.00 0.00 0.00 76 1012.3
20260905144538 30 135 4.8 14.5 0.00 0.00 0.00 76 1012.5
20260905143035 30 84 4.8 12.9 0.00 0.00 0.00 75 1012.6
20260905141533 29 86 4.8 12.9 0.00 0.00 0.00 75 1012.7
20260905140034 28 125 6.4 12.9 0.00 0.00 0.00 75 1012.7
20260905134540 28 94 8.0 12.9 0.00 0.00 0.00 75 1012.8
20260905133024 27 133 8.0 11.3 0.00 0.00 0.00 75 1012.8
20260905131520 27 120 4.8 12.9 0.00 0.00 0.00 75 1012.8
20260905130017 26 151 6.4 12.9 0.00 0.00 0.00 75 1012.8
20260905124520 26 148 6.4 9.7 0.00 0.00 0.00 75 1012.8
20260905123015 26 129 3.2 9.7 0.00 0.00 0.00 75 1012.8
20260905121516 25 131 6.4 11.3 0.00 0.00 0.00 75 1012.5
20260905120023 25 103 4.8 9.7 0.00 0.00 0.00 74 1012.5
20260905114514 25 133 3.2 9.7 0.00 0.00 0.00 74 1012.5